Lapse_Rate
5.8 6.1 6.0 6.2 6.5 6.7 6.8 6.7 6.7 6.7 6.4 6.4 6.1 6.0 6.0 6.2 6.2 6.2 6.2 6.2 6.4 6.5 6.6 6.6 6.7 6.7 6.8 6.8 6.9 7.0 7.0 7.1 7.1 7.1 7.1 7.2 7.2 7.1 7.1 6.9 6.9 6.9 6.8 6.8 6.9 7.0 6.9
5.7 6.0 6.0 6.0 6.3 6.4 6.2 6.4 6.5 6.9 6.8 6.8 6.8 6.6 6.4 6.3 6.2 6.2 6.2 6.2 6.1 6.5 6.6 6.7 6.8 6.9 6.9 6.9 7.0 6.9 7.0 7.1 7.2 7.1 7.1 7.1 7.2 7.2 7.2 7.0 6.9 6.9 7.0 6.9 6.8 6.8 6.8
6.1 6.1 6.1 5.9 6.0 6.3 6.2 6.3 6.4 6.5 6.6 6.6 6.9 6.9 6.9 6.8 6.7 6.4 6.2 6.2 6.2 6.5 6.7 6.8 7.0 7.0 7.0 7.0 7.0 7.1 7.1 7.0 7.0 7.1 7.1 7.2 7.1 7.1 7.1 7.1 7.2 6.9 7.1 7.1 7.1 6.8 6.8
5.9 6.1 6.0 6.1 6.1 6.0 6.3 6.4 6.4 6.6 6.7 7.0 6.9 6.6 6.9 7.0 6.9 7.0 6.6 6.3 6.1 6.3 6.4 6.7 6.9 7.0 7.3 6.9 7.0 7.1 7.2 7.1 7.1 7.1 7.0 6.9 6.9 7.0 7.1 7.1 6.9 6.9 6.9 6.9 6.8 6.7 6.6
6.0 5.9 6.1 6.0 6.1 6.2 6.3 6.3 6.6 6.4 6.2 6.4 6.9 6.9 6.8 6.8 7.0 6.9 7.0 6.7 6.6 6.7 6.9 6.8 6.8 7.0 7.3 7.2 7.0 7.1 7.1 7.1 6.9 6.9 6.9 6.9 6.9 6.9 6.9 7.0 6.7 6.7 6.7 6.8 6.7 6.5 6.4
5.7 5.8 5.8 5.9 6.1 6.0 6.2 6.2 6.3 6.6 6.5 6.4 6.6 6.7 6.6 6.6 6.8 7.2 6.9 6.8 6.9 7.1 7.2 7.3 7.2 7.4 7.4 6.9 7.1 7.0 7.2 6.9 6.8 6.9 6.9 7.0 6.8 6.9 7.1 7.0 6.5 6.4 6.4 6.5 7.1 6.5 6.0
5.7 5.7 5.9 6.0 6.0 6.0 6.0 6.1 6.3 6.4 6.5 6.5 6.7 6.5 6.6 6.6 6.7 7.0 7.3 7.4 7.0 7.0 7.1 7.2 7.2 7.3 7.3 6.9 7.1 7.1 7.1 7.0 7.0 6.8 6.9 6.7 6.6 6.9 7.0 6.7 6.5 6.4 6.3 6.2 7.2 6.8 6.1
5.7 5.7 5.7 5.8 6.1 6.1 6.0 6.1 6.2 6.3 6.4 6.4 6.5 6.6 6.5 6.6 6.6 6.8 7.1 7.1 7.0 7.0 7.5 7.2 7.2 7.4 7.4 7.5 7.5 7.3 7.2 7.1 7.1 6.9 6.6 6.4 6.4 6.7 6.8 7.0 6.7 6.4 6.4 6.8 7.0 7.1 6.5
5.6 5.5 5.5 5.6 5.8 5.9 6.0 6.0 6.1 6.2 6.3 6.4 6.5 6.6 6.8 6.7 6.6 6.5 6.7 6.9 6.8 6.9 7.0 7.8 7.7 7.7 7.7 7.7 7.8 7.8 7.4 7.4 7.3 7.0 6.7 6.1 6.4 6.4 6.5 6.8 6.8 6.7 6.5 6.6 6.3 6.5 6.6
5.2 5.4 5.3 5.3 5.4 5.8 6.0 6.1 6.1 6.2 6.4 6.5 6.6 6.6 6.7 6.8 6.6 6.7 6.6 6.7 6.7 6.9 6.8 7.2 7.8 7.6 7.6 7.5 7.6 7.7 7.5 7.3 7.4 7.2 6.8 6.2 6.8 6.7 6.5 6.5 6.2 6.5 6.7 6.4 6.4 6.2 6.1
4.9 5.0 5.2 5.1 5.1 5.3 5.6 6.0 6.1 6.1 6.2 6.4 6.6 6.7 6.8 6.8 6.8 6.7 6.6 6.6 6.7 6.9 6.2 7.3 7.1 7.2 7.5 7.5 7.2 7.2 7.3 7.2 7.1 6.9 6.8 6.7 6.5 6.5 6.7 6.5 6.3 6.2 6.2 6.2 6.2 6.0 5.8
4.7 4.9 4.9 5.0 4.9 4.9 5.1 5.4 5.8 6.1 6.2 6.3 6.5 6.7 6.8 6.9 6.8 6.8 6.7 6.5 6.4 6.7 6.1 7.0 7.0 7.2 7.3 7.4 7.4 7.5 7.5 7.4 7.1 7.0 6.9 7.0 6.6 6.6 6.8 6.6 6.4 6.1 6.0 5.9 5.9 6.0 5.6
4.5 4.7 4.8 4.8 4.9 4.9 4.8 5.0 5.3 5.6 6.0 6.2 6.3 6.4 6.7 6.9 6.8 6.8 6.7 6.1 6.1 6.4 6.4 6.8 7.0 7.2 7.4 7.7 7.7 7.6 7.4 7.3 7.0 6.7 6.8 6.8 6.9 7.0 7.1 6.8 6.6 6.3 6.3 5.7 5.7 5.6 6.2
4.4 4.3 4.5 4.5 4.4 4.6 4.7 4.6 4.8 5.1 5.4 5.8 6.0 6.2 6.4 6.6 6.7 6.7 6.5 5.7 5.9 6.6 6.8 6.9 7.0 7.3 7.3 7.4 7.5 7.5 7.4 7.3 7.2 6.9 6.6 6.4 6.6 7.0 7.1 7.2 6.7 6.9 6.6 6.2 5.7 6.4 6.3
4.7 4.4 3.9 3.8 3.8 3.9 3.7 4.0 4.2 4.5 4.9 5.4 5.6 5.7 5.8 6.2 6.3 6.3 6.3 5.5 6.5 6.6 6.6 6.8 6.6 6.9 7.0 7.0 6.9 6.9 6.9 7.0 7.1 7.1 7.0 6.9 6.7 6.9 6.9 6.9 6.8 6.8 6.8 6.7 6.2 5.9 5.1
5.0 4.7 4.1 3.3 3.4 3.4 3.3 3.2 3.5 3.6 4.1 4.4 4.9 5.3 5.1 5.5 5.6 5.9 5.8 6.1 6.4 6.1 6.2 6.1 6.5 6.8 6.7 6.8 6.9 6.7 6.7 6.5 6.8 6.9 7.1 7.0 6.7 6.7 6.8 6.8 6.8 6.9 6.6 6.5 6.6 6.2 6.1
5.0 4.6 4.1 3.4 3.0 2.9 3.0 3.0 2.9 3.0 3.1 3.5 3.9 4.3 4.9 4.9 5.0 5.4 5.2 5.6 5.8 5.4 5.5 5.8 5.9 6.4 6.4 6.3 6.3 6.5 6.5 6.5 6.4 6.4 6.6 6.7 6.7 6.5 6.6 6.5 6.8 6.8 6.5 6.6 6.6 6.5 6.6
5.0 4.4 3.8 3.4 3.2 2.9 3.1 3.3 3.2 2.9 3.1 3.1 3.5 3.8 4.4 4.6 4.8 4.9 5.6 5.3 5.4 5.4 5.4 5.6 5.6 5.5 5.7 5.7 5.9 5.9 5.9 6.1 6.8 6.8 6.8 6.7 6.5 6.3 6.4 6.6 6.6 6.7 6.6 6.6 6.5 6.3 6.3
5.0 4.5 3.9 3.6 3.5 3.5 3.5 3.5 3.5 3.4 3.1 3.0 3.5 3.6 4.0 4.2 4.5 4.7 5.0 5.4 5.5 5.5 5.5 5.2 5.2 5.1 4.8 5.1 5.0 5.4 5.8 5.7 5.9 6.2 6.4 6.3 6.1 5.6 5.7 6.2 6.4 6.6 6.8 7.0 6.9 6.6 5.9
5.3 5.0 4.4 4.1 4.0 3.8 3.9 4.0 3.9 3.9 3.9 3.3 3.4 3.7 3.7 3.8 4.2 4.5 4.6 4.8 5.0 4.9 5.1 5.1 5.0 5.0 4.8 4.5 4.6 4.7 5.0 5.5 5.5 5.6 6.1 6.0 6.0 5.8 5.6 5.9 6.3 6.5 6.7 6.7 6.9 6.7 6.3
5.9 5.5 5.0 4.8 4.6 4.5 4.6 4.5 4.5 4.3 4.3 4.0 3.8 3.9 4.0 4.0 4.1 4.3 4.5 4.3 4.5 4.5 4.2 4.3 4.8 4.8 5.0 4.6 4.6 5.2 5.6 4.9 4.5 4.9 5.6 6.0 5.5 6.2 6.1 5.9 5.9 6.2 6.4 6.4 6.5 6.3 6.7
6.0 6.0 5.4 5.2 4.9 4.9 5.0 5.0 4.9 4.8 4.8 4.6 4.3 4.3 4.3 4.1 4.1 4.1 4.1 4.4 4.2 4.3 4.3 4.2 4.3 4.4 4.5 4.7 4.8 4.7 4.2 4.1 3.9 4.4 4.5 5.0 5.2 5.3 5.8 6.1 5.6 6.0 6.0 6.0 6.4 6.3 6.4
6.2 6.1 5.6 5.4 5.0 4.9 4.9 5.0 5.0 5.0 4.9 4.8 4.5 4.5 4.5 4.5 4.6 4.6 4.5 4.6 4.6 4.5 4.5 4.3 4.4 4.0 4.1 4.6 4.3 3.8 3.7 3.6 3.6 4.0 3.8 4.1 4.8 4.8 5.1 5.0 5.8 5.6 5.7 6.0 6.2 6.3 6.4
6.0 6.2 5.9 5.3 5.4 5.2 5.0 5.0 5.3 5.3 5.2 5.0 4.9 5.0 4.8 4.6 4.6 4.7 4.7 4.8 4.6 4.3 4.3 4.4 4.3 4.0 5.0 4.4 3.9 3.9 4.0 4.2 4.0 4.2 3.6 3.5 4.6 4.6 4.8 5.0 6.2 5.2 6.1 5.6 6.0 6.0 6.3
6.0 6.1 6.1 5.4 5.2 5.4 5.2 5.0 5.1 5.1 5.2 4.9 4.8 4.8 4.6 4.6 4.7 4.7 4.5 4.5 4.4 4.3 4.8 4.1 5.0 4.9 4.7 4.0 3.7 3.5 4.2 4.3 5.6 5.5 5.0 4.6 4.4 4.3 5.1 5.2 5.6 5.7 5.6 5.7 6.4 6.1 6.1
5.9 6.0 6.0 5.5 5.2 5.2 5.2 5.2 5.3 5.2 5.2 4.9 4.8 4.8 4.7 4.5 4.4 4.3 4.5 4.6 4.4 4.2 4.6 5.0 4.5 4.7 4.5 4.3 4.0 3.8 3.8 4.4 4.2 4.7 5.2 5.3 5.0 4.7 4.7 5.1 5.4 5.3 5.8 6.6 7.0 6.4 6.8
5.7 6.1 5.7 5.3 5.3 5.3 5.3 5.3 5.3 5.3 5.3 5.2 5.1 5.0 4.8 4.5 4.4 4.5 4.6 4.7 4.6 4.0 4.2 4.3 4.0 4.9 4.8 4.4 4.0 3.8 3.8 3.9 4.0 4.2 4.2 4.6 4.6 4.3 4.2 4.6 4.7 5.1 5.9 6.3 6.5 6.0 6.5
5.5 5.5 5.3 5.3 5.4 5.4 5.5 5.5 5.5 5.5 5.4 5.3 5.3 5.3 5.0 5.0 4.7 4.7 5.0 4.8 4.7 4.3 4.4 4.7 4.2 3.9 3.8 4.4 4.2 4.1 4.2 4.6 4.5 4.7 4.8 4.3 4.8 4.6 4.8 4.6 4.5 4.7 5.2 5.7 5.7 6.4 7.0
5.7 5.6 5.5 5.5 5.6 5.6 5.6 5.7 5.7 5.7 5.6 5.5 5.5 5.9 5.8 5.3 4.8 5.2 5.3 5.4 5.7 6.1 4.9 4.9 4.6 4.3 4.6 5.0 5.1 5.4 5.5 5.1 4.6 4.1 4.6 4.4 4.6 5.1 5.3 5.1 5.8 6.2 6.1 6.6 7.1 7.9 7.7
Wind_Speed
13 14 15 16 16 16 16 15 15 14 14 15 16 18 20 21 23 26 30 32 34 33 30 28 25 24 7 5 4 5 19 17 8 6 6 4 6 2 3 1 1 2 0 2 3 6 6
13 13 15 15 15 15 16 17 16 16 15 15 15 16 18 21 23 26 30 32 34 33 31 29 19 13 3 4 2 10 12 5 3 4 5 4 2 2 4 2 1 1 2 5 4 6 6
11 12 13 14 15 16 16 18 18 17 18 17 17 17 17 18 21 25 29 32 35 33 33 26 10 1 3 10 4 12 5 3 1 3 1 1 2 2 1 2 1 0 3 1 3 5 3
8 10 11 13 14 16 17 18 18 18 18 19 19 19 20 21 22 25 29 34 35 34 27 12 4 1 5 2 8 3 8 4 2 2 2 1 3 4 2 1 4 2 2 2 1 7 2
9 8 9 11 11 13 15 16 17 17 19 19 20 21 21 24 25 27 31 38 36 20 9 2 2 1 7 6 3 4 2 4 5 2 3 3 4 3 3 3 2 5 2 1 1 6 4
9 9 7 9 11 12 13 13 14 16 18 20 20 22 24 25 28 30 35 38 16 8 3 2 2 2 3 1 4 5 3 2 2 1 3 4 4 2 2 1 3 1 1 1 4 4 7
10 9 9 9 10 10 11 11 12 13 15 17 19 22 24 26 29 31 17 5 5 3 6 4 5 4 10 8 4 2 2 5 2 4 1 3 1 5 6 4 2 2 2 5 7 6 7
9 9 9 8 9 10 11 11 12 13 13 14 17 20 23 27 31 28 5 4 4 1 8 7 11 8 7 3 5 5 3 3 2 4 3 2 4 7 2 4 4 4 6 12 8 1 8
10 10 9 8 8 9 9 10 11 12 12 13 15 18 23 26 29 6 3 7 4 2 3 6 5 4 2 7 5 5 5 2 4 3 3 4 2 4 3 2 3 3 5 7 9 4 4
10 11 12 11 9 8 9 10 11 11 12 12 15 18 21 29 4 4 2 3 8 2 2 5 3 3 3 3 2 3 4 2 2 5 5 4 2 5 8 7 5 8 5 9 7 6 8
11 12 12 13 11 9 8 9 10 11 11 12 14 17 21 13 6 3 6 15 8 2 4 1 1 1 1 2 3 5 1 3 4 3 4 4 1 2 3 5 5 5 1 3 7 9 3
11 11 12 13 12 11 9 8 9 9 10 10 12 15 20 6 4 5 17 14 1 4 7 2 0 2 1 1 1 2 2 4 2 3 1 6 1 4 6 4 5 1 2 10 1 3 10
11 11 12 13 13 12 11 10 9 8 9 9 10 12 10 7 2 15 16 2 3 4 1 2 2 2 1 1 2 4 4 3 3 1 2 2 6 8 6 13 8 6 7 5 3 2 5
12 13 12 13 12 12 13 12 10 8 7 8 9 11 7 6 14 14 3 2 5 4 5 2 3 2 4 4 3 1 4 4 3 3 2 3 4 5 2 8 4 5 6 4 6 5 6
13 14 13 13 12 12 12 13 12 10 6 5 5 4 4 4 5 0 0 4 7 6 4 6 3 2 2 2 2 1 3 4 7 11 7 4 5 3 5 3 6 4 6 3 7 11 10
14 15 15 14 12 12 12 12 12 11 8 2 1 2 3 6 1 2 3 11 4 2 3 2 10 6 6 5 4 3 4 3 3 11 4 2 7 6 3 4 5 5 7 2 1 5 10
15 15 17 16 15 13 12 12 11 11 7 3 2 2 2 3 2 2 9 7 3 3 4 5 1 3 3 2 2 3 4 1 2 7 3 1 6 7 3 7 13 4 4 3 3 4 6
17 16 16 18 17 16 14 12 12 11 5 4 1 1 3 2 2 2 10 5 7 6 5 4 4 2 1 1 2 3 5 3 5 7 9 4 3 5 15 9 7 11 13 11 6 7 6
19 19 17 19 20 18 17 14 14 13 15 3 1 2 2 1 4 3 4 5 3 2 3 5 3 5 8 3 5 10 11 1 9 9 3 10 4 8 13 5 2 7 7 12 8 5 18
21 20 21 19 21 20 19 18 16 17 20 3 2 2 2 1 1 3 5 5 4 4 3 7 10 9 7 5 6 9 7 5 13 16 19 6 10 16 18 17 5 8 7 11 12 11 15
24 21 23 23 21 23 20 20 19 20 22 4 2 3 3 4 6 6 1 0 1 6 3 2 3 9 9 7 14 20 20 18 13 16 13 6 15 20 23 27 24 17 21 21 21 23 19
27 26 24 25 21 24 22 22 21 22 23 5 4 3 1 1 6 9 9 8 11 10 3 5 6 6 6 9 11 19 16 13 11 13 16 9 13 17 26 29 25 25 30 31 29 28 21
29 29 27 25 24 25 24 23 23 24 23 4 2 0 2 4 4 4 7 11 5 8 7 14 10 9 12 17 15 14 14 15 18 19 16 11 7 8 20 23 18 18 27 26 27 22 22
31 29 28 28 28 28 26 24 23 25 28 2 2 3 2 4 8 10 8 15 16 15 17 12 12 14 5 10 15 15 17 21 22 22 17 19 19 11 13 15 21 21 15 19 18 21 22
35 34 35 34 32 30 26 25 24 24 30 4 2 3 4 4 8 12 13 16 13 12 16 16 17 19 13 11 10 11 8 11 18 27 23 21 16 12 11 18 21 21 19 15 17 27 23
37 39 38 35 32 30 26 24 22 24 27 9 4 2 2 3 8 9 8 10 10 9 13 16 13 17 8 5 5 7 7 7 7 9 12 18 20 14 16 19 29 24 25 21 17 23 22
42 35 31 30 29 26 25 23 21 22 25 11 3 10 4 6 5 6 8 9 7 7 9 8 6 11 11 6 9 10 15 13 13 16 17 10 12 19 21 22 21 16 17 4 15 16 8
34 25 26 26 25 26 24 22 20 19 21 13 2 11 7 3 7 7 10 15 9 7 10 1 4 4 5 8 6 8 10 13 18 28 30 20 12 17 17 22 31 18 24 33 18 16 8
27 24 24 24 24 23 21 20 19 17 16 17 3 8 11 5 2 1 9 13 15 18 11 7 11 10 3 5 5 3 4 6 14 15 16 20 22 18 19 17 11 12 29 30 24 23 10
Wind_Direction
15 16 19 20 18 19 11 16 11 7 4 354 348 345 344 344 343 340 336 333 331 329 330 329 332 334 357 357 275 332 350 351 10 20 42 40 43 52 52 45 15 85 170 301 280 170 153
10 13 14 14 12 13 9 11 11 9 7 360 352 344 340 337 335 334 330 328 326 323 325 324 326 334 55 325 315 333 333 335 32 36 8 31 90 116 110 104 100 235 260 284 221 185 163
9 7 9 9 9 9 5 8 8 7 5 1 357 345 340 335 328 327 325 323 319 318 319 320 324 28 109 257 321 332 7 301 217 152 117 145 131 64 136 354 350 332 299 339 183 186 184
7 2 1 7 9 4 2 2 5 7 5 360 358 347 342 333 329 323 324 319 312 310 311 314 328 26 247 240 311 359 338 358 328 235 168 197 129 106 68 68 24 29 61 334 89 168 225
357 353 356 357 3 1 2 359 0 2 1 357 356 348 342 337 328 325 328 316 311 313 295 207 296 119 269 327 38 322 359 337 304 78 40 82 69 76 54 66 352 17 262 256 181 206 149
355 360 347 343 349 354 354 353 358 357 355 353 356 350 342 336 330 330 330 314 296 333 290 217 260 302 279 303 289 312 276 353 350 54 62 43 52 89 69 104 268 294 330 271 269 170 199
339 344 344 340 341 342 342 343 355 352 351 350 354 349 338 335 331 331 340 345 10 339 41 247 253 244 287 303 290 263 6 353 10 54 181 22 170 227 238 208 178 155 256 280 271 240 214
333 335 335 332 330 332 333 337 345 346 345 346 354 344 335 333 331 328 306 71 81 305 302 242 246 260 271 283 288 302 204 165 128 202 117 41 258 250 130 179 211 231 280 279 293 189 211
319 326 320 316 316 318 325 331 334 335 338 345 348 338 338 333 329 333 352 109 360 153 278 296 220 237 240 146 212 268 184 165 144 152 177 194 237 81 147 196 235 234 243 275 279 312 243
307 313 314 310 307 309 316 324 329 333 336 342 341 338 338 336 323 331 254 0 332 196 358 270 252 269 153 165 265 234 215 137 79 197 174 243 326 240 249 262 199 277 225 258 283 306 292
312 314 310 307 307 303 308 316 324 328 332 334 335 337 337 344 313 284 334 322 313 172 328 239 181 96 103 168 297 17 258 61 146 140 146 232 189 219 240 229 167 253 171 259 280 275 282
316 312 309 304 303 303 299 305 316 321 326 328 331 335 341 8 315 318 325 309 197 58 250 318 188 162 121 230 280 111 92 55 113 162 211 249 303 232 218 220 183 59 332 318 337 245 259
316 312 305 300 293 296 293 298 308 314 322 325 320 325 329 319 269 340 323 346 70 182 348 227 162 169 136 198 244 171 142 162 187 319 333 311 238 251 221 269 250 246 282 302 282 226 275
318 314 310 299 289 287 288 293 298 303 312 317 315 321 304 247 293 325 334 72 206 214 193 29 107 50 186 173 258 80 119 183 206 109 147 258 298 196 155 203 202 187 185 210 271 270 286
325 321 318 310 293 282 281 285 290 294 299 312 321 326 307 280 336 66 262 205 213 193 192 166 121 131 247 259 208 89 219 213 202 175 196 198 248 274 209 151 174 146 203 267 265 264 280
329 335 325 317 308 287 276 276 279 284 295 315 55 343 268 317 301 93 224 230 213 249 21 29 195 183 191 205 191 190 200 175 223 197 219 252 286 232 239 153 223 206 151 193 155 291 285
325 322 323 320 310 293 275 265 257 268 276 178 37 358 267 288 132 89 209 220 273 12 26 31 269 189 170 177 175 198 225 251 89 26 282 300 224 254 147 200 228 179 212 199 255 205 270
303 310 312 314 308 293 271 257 243 238 226 65 81 265 307 315 114 205 228 257 23 3 22 10 349 346 282 355 297 278 242 168 65 32 341 290 250 257 242 227 221 227 240 234 231 233 234
296 297 302 305 305 294 269 249 234 224 176 133 200 270 341 334 190 219 263 285 289 345 11 22 327 21 19 305 273 241 259 27 288 317 323 355 282 310 298 238 147 229 213 229 241 274 258
291 294 296 296 297 292 270 246 228 218 192 122 127 235 322 268 116 160 217 259 266 357 261 250 260 290 305 277 263 277 283 318 345 321 308 332 271 243 256 263 283 263 232 218 218 259 270
291 284 286 288 293 288 272 248 223 215 198 161 170 223 213 192 222 214 168 73 344 257 7 317 289 240 241 263 259 264 277 294 295 296 281 267 262 264 276 279 265 263 272 265 249 251 248
290 288 285 279 283 285 273 243 224 213 196 208 158 174 174 220 152 195 223 238 258 258 276 271 248 304 300 253 251 293 317 305 282 294 296 308 270 280 270 268 271 283 265 259 250 249 253
285 282 274 276 278 280 271 241 222 212 193 200 144 212 145 190 190 186 219 216 230 196 235 237 253 258 253 265 280 281 278 273 266 274 275 274 272 277 270 268 271 272 245 256 258 246 242
284 278 271 270 271 270 261 236 222 212 194 153 176 126 155 223 205 215 211 228 238 245 252 264 283 278 255 316 309 292 276 269 258 254 237 249 248 267 271 290 251 252 241 260 252 243 235
281 272 269 264 264 261 249 228 218 215 197 182 182 164 166 234 225 231 243 249 261 265 263 266 264 263 280 283 290 292 274 274 253 240 228 221 232 245 255 254 276 275 237 239 237 256 247
282 274 262 252 251 249 236 220 216 215 204 188 199 156 168 236 227 222 230 241 259 265 276 266 274 260 258 246 220 251 258 285 284 294 214 216 222 212 237 245 249 257 253 237 268 266 262
287 269 242 238 238 237 224 215 214 215 207 185 198 186 214 250 242 230 227 242 238 238 258 283 273 275 190 221 245 250 253 257 255 270 271 257 222 218 235 243 253 249 288 194 203 252 204
276 245 229 226 226 218 210 206 206 211 203 178 171 186 196 237 235 231 238 241 253 247 252 205 337 234 237 246 256 251 248 248 249 248 257 253 240 232 232 238 248 222 226 236 263 269 260
262 237 225 216 211 205 199 198 202 200 200 177 199 175 206 233 258 306 252 250 237 242 258 238 240 244 309 254 241 298 283 304 288 285 274 254 234 245 226 233 242 207 225 231 236 243 229